星链-37127(STARLINK-37127)

导读

STARLINK-37127(NORAD编号68236)是美国SpaceX公司星链(Starlink)卫星互联网星座中的一员,属于第二代星链卫星。该卫星部署于近地轨道,依托星链低轨组网设计,可提供低时延全球互联网接入服务,支持包括应急通信、手机直连等多元应用场景。 这颗卫星采用星链标准化设计,配备相控阵天线与氩气/氪离子推进系统,具备自主碰撞规避能力。曾出现轨道高度异常骤降的故障事件,目前已失控,预计会在短期内再入大气层烧毁,产生的少量空间碎片已被全程监测,风险可控。

Basic Information
目录编号:
68236
目录名称:
STARLINK-37127
国际标识:
2026-054E
轨道中心:
EARTH
卫星名称:
星链-37127
卫星全名:
星链-37127(STARLINK-37127)
卫星状态:
在轨 (已飞行180 天)
发射日期:
2026-03-17 UTC
国别 :
美国 (US)
星等 :
--
This satellite is enrolled in the Space Conjunction Data Service (SCDS) and the current flight risk assessment level is: No High Risk
Orbit Information
数据来源 国际轨道数据 AOE轨道数据
星历时间 2026-09-13T07:27:30+0800
11小时前
查看轨道信息
2026-09-11T23:00:00+0800
1天前
查看轨道信息
半长轴 6840.839km 6840.869km
偏心率 0.00013 0.0001759
轨道倾角 53.158° 53.160°
近地点辐角 85.436° 88.716°
升交点赤经 137.214° 143.540°
平近点角 274.679° 356.616°
近地点 461.812km 461.528km
远地点 463.592km 463.936km
周期 93.848分钟 93.848分钟
每日圈数 15.344007 15.343905
Detailed Information
固有亮度:
5
最大亮度:
2.5
卫星平台:
Starlink V1.0
覆盖范围:
全球
运营商:
太空探索技术公司
运营商所在国:
美国
制造商(研发单位):
太空探索技术公司
制造商所在国:
美国
使用方式:
暂无
Satellite Introduction
Starlink 计划是 SpaceX 推出的全球卫星互联网项目,通过发射低轨道卫星,为全球尤其是偏远地区提供高速、低延迟的互联网服务。自 2019 年起,Starlink 已部署数千颗卫星,旨在缩小全球数字鸿沟,推动互联网普及。该项目还为军事、航空等行业提供通信支持,带来广泛经济效益。
2D Orbit Map
3D Orbit Map
Orbit Altitude Analysis Chart
Orbit Inclination Analysis Chart
Orbit Comprehensive Analysis Chart
View Comprehensive Chart
Conjunction Data List
Event ID Objects TCA Miss Dist (km) Collision Risk Probability Collision Risk Index (CRI) Action
CDM_260915-150705-878506-823621
2026-09-15T
15:07:56+0000
0.189 km
中距离
4.537182E-4 高风险 0.88
CDM_260915-072605-838906-823621
2026-09-15T
07:26:33+0000
0.645 km
远距离
6.693456E-5 中风险 0.72
CDM_260915-133405-878506-823621
2026-09-15T
13:34:09+0000
2.285 km
极远距离
6.985071E-7 极低风险 0.32
Miss Distance Evolution Trend with All Objects
Collision Probability Evolution Trend with All Objects